Location: Muck Cross
(36.7179°N, 78.3678°W)
Time: 20:54:05
(UTC+00:00)

Vanguard 2 - Visible Passes

Search period start: 21 March 2023 00:00
Search period end: 31 March 2023 00:00
Orbit: 553 x 2927 km, 32.9° (Epoch: 21 March)

Date Brightness Start Highest point End Pass type
(mag) Time Alt. Az. Time Alt. Az. Time Alt. Az.
21 Mar 11.3 09:32:53 10° SSW 09:46:24 28° SSE 09:57:29 10° E visible
22 Mar 11.8 07:46:12 10° SSE 07:51:56 12° SE 07:57:30 10° ESE visible
22 Mar 11.1 09:47:47 10° SSW 10:02:44 36° SSE 10:14:39 10° E visible
23 Mar 11.6 07:58:19 11° S 08:08:09 18° SE 08:17:45 10° ESE visible
23 Mar 10.9 10:03:06 10° SW 10:19:05 43° SSE 10:31:32 10° E visible
24 Mar 11.4 08:14:09 14° S 08:24:18 25° SE 08:36:03 10° E visible
24 Mar 10.7 10:18:46 10° SW 10:35:28 51° SSE 10:48:12 10° E visible
25 Mar 11.2 08:29:52 18° S 08:40:28 32° SE 08:53:33 10° E visible
25 Mar 10.6 10:34:41 10° SW 10:51:52 58° SSE 11:04:44 10° E visible
26 Mar 11.6 06:44:10 14° SE 06:46:11 14° SE 06:53:27 10° ESE visible
26 Mar 11.0 08:45:28 20° SSW 08:56:39 39° SSE 09:10:36 10° E visible
27 Mar 11.4 06:59:40 19° SE 07:02:09 20° SE 07:13:00 10° E visible
27 Mar 10.8 09:00:57 21° SSW 09:12:52 47° SSE 09:27:25 10° E visible
28 Mar 11.1 07:15:04 25° SSE 07:18:05 27° SE 07:31:05 10° E visible
28 Mar 10.6 09:16:20 21° SW 09:29:08 55° SSE 09:44:03 10° E visible
29 Mar 10.9 07:30:21 31° SSE 07:34:03 34° SE 07:48:29 10° E visible
29 Mar 10.5 09:31:38 20° SW 09:45:28 62° SSE 10:00:35 10° E visible
30 Mar 11.7 05:44:18 13° ESE 05:44:18 13° ESE 05:47:36 10° ESE visible
30 Mar 10.7 07:45:34 36° S 07:50:04 41° SE 08:05:29 10° E visible
30 Mar 10.5 09:46:49 17° WSW 10:01:52 68° SSE 10:17:04 10° E visible
